Weather History for Owensboro, KY

Change the Weather History Date:

Sunday, December 9, 2012

  Actual Average Record
Temperature  
Mean Temperature 57 °F -  
Max Temperature 64 °F 49 °F 71 °F (1946)
Min Temperature 50 °F 29 °F 5 °F (1937)
Degree Days  
Heating Degree Days 8    
Growing Degree Days 7 (Base 50)    
Moisture  
Dew Point 56 °F    
Average Humidity 95    
Maximum Humidity 100    
Minimum Humidity 87    
Precipitation  
Precipitation 0.79 in - - ()
Sea Level Pressure  
Sea Level Pressure 29.84 in    
Wind  
Wind Speed 8 mph (South)    
Max Wind Speed 17 mph    
Max Gust Speed -    
Visibility 6 miles    
Events Rain , Thunderstorm    
Averages and records for this station are not official NWS values.
T = Trace of Precipitation, MM = Missing Value Source: NWS Daily Summary

Daily Weather History Graph

Daily Weather History Graph

Search for Another Location

Airport:

Trip Planner

Search our weather history database for the weather conditions in past years. The results will help you decide how hot, cold, wet, or windy it might be!

Date:

Astronomy

Dec. 09, 2012 Rise Set
Actual Time 6:52 AM CST 4:29 PM CST
Civil Twilight 6:23 AM CST 4:59 PM CST
Nautical Twilight 5:50 AM CST 5:31 PM CST
Astronomical Twilight 5:18 AM CST 6:03 PM CST
Moon 2:28 AM CST (12/9) 1:33 PM CST (12/9)
Length of Visible Light 10h 35m
Length of Day
9h 37m
Waning Crescent, 18% of the Moon is Illuminated
Dec 9
Waning Crescent
Dec 13
New
Dec 19
First Quarter
Dec 28
Full
Jan 4
Last Quarter

Hourly Weather History & Observations

Time (CST) Temp. Dew Point Humidity Pressure Visibility Wind Dir Wind Speed Gust Speed Precip Events Conditions
12:19 AM 51.8 °F 50.0 °F 94% 29.97 in 7.0 mi ESE 5.8 mph - N/A   Overcast
1:56 AM 52.0 °F 50.0 °F 93% 29.96 in 9.0 mi East 4.6 mph - N/A   Overcast
2:42 AM 51.8 °F 50.0 °F 94% 29.94 in 9.0 mi East 5.8 mph - N/A   Overcast
2:56 AM 52.0 °F 50.0 °F 93% 29.94 in 9.0 mi East 5.8 mph - N/A   Overcast
3:56 AM 50.9 °F 50.0 °F 97% 29.92 in 8.0 mi East 5.8 mph - N/A   Overcast
4:56 AM 52.9 °F 52.0 °F 97% 29.92 in 4.0 mi ESE 4.6 mph - 0.00 in Rain , Thunderstorm Rain
5:21 AM 53.6 °F 51.8 °F 94% 29.89 in 2.5 mi East 9.2 mph - 0.06 in Rain , Thunderstorm Light Thunderstorms and Rain
5:28 AM 53.6 °F 51.8 °F 94% 29.89 in 3.0 mi East 6.9 mph - 0.06 in Rain , Thunderstorm Light Thunderstorms and Rain
5:49 AM 53.6 °F 53.6 °F 100% 29.89 in 4.0 mi ESE 8.1 mph - 0.07 in Rain Light Rain
5:56 AM 52.9 °F 52.9 °F 100% 29.89 in 5.0 mi ESE 9.2 mph - 0.07 in   Scattered Clouds
6:27 AM 53.6 °F 53.6 °F 100% 29.88 in 6.0 mi ESE 10.4 mph - 0.00 in   Mostly Cloudy
6:34 AM 53.6 °F 53.6 °F 100% 29.88 in 6.0 mi SE 9.2 mph - 0.00 in   Scattered Clouds
6:48 AM 53.6 °F 53.6 °F 100% 29.87 in 7.0 mi ESE 8.1 mph - 0.00 in   Partly Cloudy
6:56 AM 54.0 °F 54.0 °F 100% 29.88 in 6.0 mi SE 8.1 mph - 0.00 in   Scattered Clouds
7:31 AM 53.6 °F 53.6 °F 100% 29.91 in 1.8 mi SW 6.9 mph - 0.03 in Rain Rain
7:56 AM 54.0 °F 54.0 °F 100% 29.90 in 3.0 mi SSE 4.6 mph - 0.08 in Rain Light Rain
8:00 AM 53.6 °F 53.6 °F 100% 29.89 in 2.0 mi SE 5.8 mph - 0.00 in Rain Light Rain
8:25 AM 55.4 °F 55.4 °F 100% 29.88 in 3.0 mi SE 6.9 mph - 0.00 in   Mostly Cloudy
8:56 AM 57.9 °F 56.8 °F 96% 29.89 in 5.0 mi SSE 9.2 mph - 0.00 in   Mostly Cloudy
9:56 AM 61.0 °F 59.9 °F 96% 29.88 in 7.0 mi South 8.1 mph - 0.00 in   Partly Cloudy
10:56 AM 63.0 °F 61.0 °F 93% 29.86 in 10.0 mi South 10.4 mph - 0.00 in   Mostly Cloudy
11:56 AM 64.9 °F 61.9 °F 90% 29.84 in 7.0 mi SSW 9.2 mph - N/A   Mostly Cloudy
12:18 PM 64.4 °F 62.6 °F 94% 29.83 in 7.0 mi SSW 12.7 mph - N/A   Mostly Cloudy
12:56 PM 63.9 °F 61.9 °F 93% 29.82 in - SSW 12.7 mph - 0.00 in Rain Light Rain
1:21 PM 64.4 °F 62.6 °F 94% 29.82 in 6.0 mi SW 11.5 mph - 0.00 in Rain Light Rain
1:56 PM 63.0 °F 61.0 °F 93% 29.80 in 10.0 mi SSW 8.1 mph - 0.01 in   Mostly Cloudy
2:56 PM 64.9 °F 61.0 °F 87% 29.78 in 10.0 mi South 11.5 mph - 0.00 in   Mostly Cloudy
3:56 PM 63.9 °F 59.9 °F 87% 29.78 in 10.0 mi SSW 10.4 mph - N/A   Overcast
4:56 PM 61.9 °F 61.0 °F 97% 29.75 in 7.0 mi South 13.8 mph - 0.02 in Rain Light Rain
4:57 PM 62.6 °F 60.8 °F 94% 29.76 in 5.0 mi South 13.8 mph - 0.00 in Rain Light Rain
5:01 PM 62.6 °F 60.8 °F 94% 29.76 in 8.0 mi South 13.8 mph - 0.00 in Rain Light Rain
5:04 PM 62.6 °F 60.8 °F 94% 29.76 in 7.0 mi South 11.5 mph - 0.00 in Rain Light Rain
5:56 PM 61.9 °F 61.0 °F 97% 29.75 in 10.0 mi SSW 11.5 mph - 0.02 in Thunderstorm Mostly Cloudy
6:49 PM 62.6 °F 60.8 °F 94% 29.74 in 1.8 mi South 12.7 mph - 0.11 in Rain , Thunderstorm Light Thunderstorms and Rain
6:56 PM 61.9 °F 61.0 °F 97% 29.75 in 4.0 mi WSW 8.1 mph - 0.14 in Rain , Thunderstorm Thunderstorms and Rain
7:34 PM 60.8 °F 59.0 °F 94% 29.76 in 1.5 mi West 17.3 mph - 0.19 in Rain , Thunderstorm Heavy Thunderstorms and Rain
7:56 PM 59.9 °F 59.0 °F 97% 29.75 in 2.0 mi West 11.5 mph - 0.31 in Rain , Thunderstorm Heavy Thunderstorms and Rain
8:56 PM 59.0 °F 57.9 °F 96% 29.74 in 9.0 mi West 8.1 mph - 0.13 in Rain Light Rain
9:56 PM 57.9 °F 55.9 °F 93% 29.76 in 10.0 mi NW 15.0 mph - 0.01 in Rain Light Rain
10:28 PM 55.4 °F 53.6 °F 94% 29.78 in 10.0 mi NW 11.5 mph - N/A   Overcast
10:56 PM 54.0 °F 52.9 °F 96% 29.77 in 8.0 mi NW 9.2 mph - N/A   Overcast
11:34 PM 53.6 °F 51.8 °F 94% 29.78 in 10.0 mi NW 16.1 mph - N/A   Overcast
11:56 PM 52.9 °F 50.9 °F 93% 29.79 in 9.0 mi NW 15.0 mph - N/A   Overcast